This is the latest recevied weather packets stored in our database for station/object KD8DLP-13. If no packets are shown the sender has not sent any weather packets the latest 10 day(s).
| Time | Temp. | Humidity | Pressure | Rain* | Wind** | Luminosity | Snow |
|---|---|---|---|---|---|---|---|
| 1778010123 | 15.56° C | 38% | 1009.8 hPa | 0 mm | - | 359 W/m² | - |
| 1778009819 | 14.44° C | 41% | 1009.9 hPa | 0 mm | - | 731 W/m² | - |
| 1778009517 | 14.44° C | 40% | 1009.8 hPa | 0 mm | - | 374 W/m² | - |
| 1778009215 | 14.44° C | 39% | 1009.8 hPa | 0 mm | - | 490 W/m² | - |
| 1778008912 | 14.44° C | 40% | 1009.9 hPa | 0 mm | - | 511 W/m² | - |
| 1778008610 | 14.44° C | 41% | 1009.8 hPa | 0 mm | - | 392 W/m² | - |
| 1778008308 | 15° C | 41% | 1009.5 hPa | 0 mm | - | 548 W/m² | - |
| 1778008004 | 14.44° C | 40% | 1009.5 hPa | 0 mm | - | 565 W/m² | - |
| 1778007704 | 14.44° C | 41% | 1009.4 hPa | 0 mm | - | 758 W/m² | - |
| 1778007401 | 13.89° C | 39% | 1009.2 hPa | 0 mm | - | 358 W/m² | - |
| 1778007098 | 13.89° C | 40% | 1009.6 hPa | 0 mm | - | 614 W/m² | - |
| 1778006794 | 13.89° C | 40% | 1009.3 hPa | 0 mm | - | 525 W/m² | - |
| 1778006491 | 14.44° C | 40% | 1009.2 hPa | 0 mm | - | 563 W/m² | - |
| 1778006188 | 13.89° C | 41% | 1009.1 hPa | 0 mm | - | 367 W/m² | - |
| 1778005886 | 13.89° C | 41% | 1009.4 hPa | 0 mm | - | 411 W/m² | - |
| 1778005581 | 13.89° C | 39% | 1009.5 hPa | 0 mm | - | 400 W/m² | - |
| 1778005279 | 14.44° C | 38% | 1009.3 hPa | 0 mm | - | 426 W/m² | - |
| 1778004975 | 14.44° C | 38% | 1009.4 hPa | 0 mm | - | 419 W/m² | - |
| 1778004672 | 14.44° C | 39% | 1009.5 hPa | 0 mm | - | 498 W/m² | - |
| 1778004368 | 15° C | 38% | 1009.6 hPa | 0 mm | - | 461 W/m² | - |
| 1778004066 | 15° C | 37% | 1009.4 hPa | 0 mm | - | 525 W/m² | - |
| 1778003762 | 15° C | 39% | 1009.2 hPa | 0 mm | - | 501 W/m² | - |
| 1778003458 | 15° C | 37% | 1009.4 hPa | 0 mm | - | 589 W/m² | - |
| 1778003155 | 15° C | 38% | 1009.3 hPa | 0 mm | - | 621 W/m² | - |
| 1778002851 | 14.44° C | 39% | 1009.2 hPa | 0 mm | - | 594 W/m² | - |
* Rain latest hour (hover to see other rain measurements)
** Current wind speed in m/s (hover to see current wind gust speed)